Tracking 19795 objects as of 19-Jul-2019
HD Live streaming from Space Station
objects crossing your sky now

COSMOS 1275 DEB

Track COSMOS 1275 DEB now!
10-day predictions


NORAD ID: 12767
Int'l Code: 1981-053DL
Perigee: 851.1 km
Apogee: 906.0 km
Inclination: 83.0 °
Period: 102.4 minutes
Semi major axis: 7249 km
RCS: 0.055 m2 (small)
Launch date: June 4, 1981
Source: Commonwealth of Independent States (former USSR) (CIS)
Launch site: PLESETSK MISSILE AND SPACE COMPLEX (PKMTR)

Note: This is SATELLITE DEBRIS
aabbcc
Your satellite tracking list
Your tracking list is empty




NASA's NSSDC Master Catalog

Two Line Element Set (TLE):
1 12767U 81053DL  19198.73307094 +.00000196 +00000-0 +10782-3 0  9998
2 12767 082.9615 290.7461 0037869 354.1665 164.1777 14.06476796935828
Source of the keplerian elements: AFSPC